Wind_Speed
46 47 42 35 50 48 46 48 45 46 47 50 48 45 40 40 38 32 29 24 20 20 26 24 22 24 26 26 26 26 24 21 19 19 19 20 22 20 19 21 20 20 21 21
62 54 50 38 37 47 45 43 45 45 47 52 52 51 41 44 41 35 31 28 24 22 23 23 25 24 26 27 28 28 28 25 23 24 24 23 23 21 20 20 21 21 22 21
58 58 60 48 41 47 44 46 44 42 45 48 51 54 44 44 45 40 36 29 28 23 22 22 23 26 26 25 27 27 27 27 26 27 25 25 25 23 23 24 23 23 21 22
48 49 54 59 46 37 44 45 38 37 42 46 48 58 49 47 47 42 36 31 26 27 25 26 24 23 25 25 24 24 24 25 27 27 25 26 26 26 26 26 26 26 25 25
44 43 46 53 60 53 40 38 38 36 45 46 49 56 50 47 47 41 35 34 29 30 30 30 27 24 25 24 23 24 25 24 24 22 20 22 22 25 27 25 27 27 28 28
38 43 41 43 45 52 54 43 37 37 41 49 42 49 60 44 45 41 35 35 34 33 33 32 32 28 27 28 27 27 27 24 23 23 23 23 23 24 25 25 26 27 28 28
50 49 46 44 45 48 57 56 53 48 44 49 50 50 53 41 41 37 33 36 38 35 33 31 33 30 30 30 28 26 27 24 25 25 24 24 26 25 25 27 27 28 29 31
48 46 45 44 42 44 47 49 54 53 52 43 49 57 52 44 37 37 36 35 39 41 38 37 34 33 32 32 30 28 29 29 28 27 26 28 28 26 27 28 31 32 31 34
54 50 46 41 43 47 47 49 48 50 53 50 51 50 55 55 45 42 41 41 41 40 41 44 40 38 36 33 34 33 32 33 32 30 30 30 31 31 32 33 33 35 37 39
56 56 55 52 47 37 39 43 41 40 46 51 53 52 52 45 39 40 38 36 39 40 40 45 43 43 41 37 36 37 35 35 36 35 33 32 34 36 36 37 38 39 41 44
58 57 58 56 55 49 52 46 45 47 51 50 54 53 47 47 38 35 30 27 27 32 35 39 46 46 42 41 39 39 39 39 39 39 39 38 39 40 40 40 41 43 45 46
58 60 61 58 56 58 59 57 53 50 47 53 53 51 40 42 38 35 35 32 32 33 27 37 42 45 45 42 42 41 41 42 42 42 43 42 43 42 43 44 44 46 48 50
57 62 61 61 60 58 58 54 49 46 50 47 53 50 41 40 44 42 43 42 39 39 35 32 35 44 45 47 47 46 44 44 44 46 47 47 46 46 47 47 48 50 51 49
54 57 57 57 54 57 56 56 56 51 51 43 46 30 33 33 34 35 37 39 41 40 44 36 37 39 46 47 46 46 47 46 47 48 48 49 49 49 49 49 51 51 50 47
53 55 57 52 54 55 52 53 49 42 46 47 33 39 34 30 34 36 39 38 36 38 40 43 42 42 47 48 47 46 46 46 47 50 51 51 51 51 50 52 51 50 48 47
52 53 54 58 56 56 58 57 55 52 49 50 42 42 27 32 35 37 39 38 38 32 40 45 45 45 47 51 49 48 48 49 51 51 50 51 52 53 53 52 52 52 51 51
49 52 53 57 56 63 66 57 58 57 55 49 51 37 34 39 42 39 36 34 35 39 42 47 50 49 50 50 49 49 49 50 49 50 51 52 53 53 54 55 56 52 53 50
45 46 48 56 59 63 60 60 58 60 56 55 54 46 43 43 51 49 41 37 39 41 47 48 44 45 49 53 53 51 52 51 52 51 52 52 52 53 53 53 53 50 49 46
34 37 45 52 55 59 61 54 57 61 60 57 54 48 50 53 57 54 44 50 47 47 45 50 45 42 50 50 57 59 57 56 56 53 52 51 51 52 51 53 51 50 47 47
43 48 48 45 55 59 55 48 52 56 63 48 53 51 52 56 63 55 55 58 57 54 49 48 48 45 44 51 54 54 61 63 62 59 55 54 54 54 54 54 50 48 48 50
57 58 60 61 66 60 55 47 50 60 55 51 55 58 57 61 62 66 65 65 66 62 59 56 58 54 54 53 52 57 59 59 62 63 59 58 55 53 52 51 50 50 51 50
52 55 57 62 67 69 45 49 57 55 55 57 58 61 64 64 65 66 70 69 69 67 64 62 65 66 63 61 58 57 57 58 62 60 57 58 57 55 53 51 52 52 52 49
56 55 56 62 67 65 58 57 60 61 58 57 58 58 62 63 66 67 69 70 68 68 68 59 59 61 66 69 66 61 57 56 59 59 57 58 58 54 53 54 54 53 52 51
56 55 58 61 62 62 66 67 70 69 73 68 62 58 57 57 60 60 60 66 66 55 63 61 58 60 62 62 65 57 51 52 55 58 59 59 57 56 56 56 55 53 53 52
56 58 59 62 64 64 61 66 70 72 68 64 64 57 57 57 42 53 56 57 60 59 51 60 60 57 58 62 61 61 57 53 54 58 58 59 61 60 59 57 55 54 53 52
60 62 64 63 61 62 62 60 64 62 64 66 63 61 57 57 46 43 47 50 53 59 56 49 55 56 59 66 65 61 58 60 61 63 62 65 66 64 61 55 52 55 54 53
Wind_Direction
222 223 209 220 223 225 231 232 236 240 239 243 243 238 231 233 236 235 242 241 248 243 241 243 244 241 241 242 245 251 256 260 268 270 268 272 270 274 273 271 270 269 272 274
237 230 222 231 232 223 227 227 230 230 229 236 241 240 230 236 236 236 233 236 237 243 246 247 248 242 239 243 245 247 252 254 256 262 264 268 271 271 267 267 269 271 275 281
229 236 227 237 222 218 221 222 225 231 232 235 238 242 233 235 239 236 235 233 239 239 239 243 247 248 245 245 245 249 252 256 260 262 266 270 269 270 270 268 272 275 279 278
222 228 230 237 228 217 219 220 220 231 234 235 239 239 233 232 239 241 242 242 239 237 240 242 243 240 243 246 251 253 258 261 263 267 269 268 269 269 267 271 273 274 275 278
223 226 225 231 236 233 217 217 218 229 232 230 234 245 233 235 237 242 243 244 235 235 245 250 249 242 244 250 250 259 263 263 266 267 266 268 269 267 270 272 272 274 274 274
217 225 228 232 238 248 243 225 227 227 235 230 228 241 245 233 239 242 244 246 244 240 244 249 253 249 248 249 254 258 262 259 256 252 257 262 264 266 267 269 271 272 275 278
231 234 232 233 236 246 255 249 255 249 238 236 234 236 250 240 238 238 244 249 248 247 248 248 252 253 250 252 253 255 259 257 261 260 261 261 263 264 266 269 270 273 273 276
228 232 234 236 240 241 246 253 259 262 256 241 245 240 245 247 245 243 247 250 252 251 248 246 248 247 248 251 253 254 255 254 255 253 251 251 253 260 265 269 272 272 274 277
236 236 236 241 244 243 245 245 255 262 258 250 243 234 241 248 247 247 252 250 251 252 250 249 248 246 245 248 252 253 251 253 256 256 251 252 253 258 262 265 266 270 274 276
238 240 240 241 240 236 238 242 243 251 257 259 250 240 242 245 247 241 246 244 247 249 252 250 249 250 248 246 246 250 250 251 253 255 254 254 254 255 258 261 265 268 272 276
236 238 241 239 240 236 240 241 245 242 235 246 255 242 240 245 241 236 234 237 238 246 246 248 251 248 250 249 245 246 250 251 252 252 252 257 258 258 260 265 268 269 272 278
236 236 236 240 239 238 243 247 249 246 247 248 253 250 256 249 244 236 227 230 236 228 238 245 244 247 246 247 245 246 249 252 252 252 254 258 260 261 264 267 269 269 273 277
235 237 239 240 242 241 241 243 244 242 244 242 245 246 244 251 249 250 245 248 246 236 241 249 250 242 240 242 244 245 246 250 252 253 255 257 258 260 262 264 268 271 276 280
233 236 240 241 245 245 243 238 240 244 243 241 242 238 228 241 246 252 253 249 244 241 239 245 248 249 243 241 241 245 247 249 252 254 256 258 260 261 265 268 271 274 278 281
233 235 237 236 236 241 240 240 236 242 241 246 237 241 226 238 249 249 251 254 251 240 242 240 243 242 240 240 241 243 246 248 251 253 256 259 261 265 268 270 274 277 280 282
238 239 237 236 235 236 238 237 237 238 238 248 241 244 237 247 252 249 251 252 256 247 231 231 234 238 238 237 238 241 245 248 251 254 257 259 262 264 266 270 274 277 281 284
237 237 238 237 239 241 239 237 240 241 244 249 250 249 242 251 260 261 262 259 259 258 251 236 229 232 235 234 237 238 241 244 248 252 254 257 260 263 267 271 275 279 282 282
240 241 242 240 240 242 240 240 242 246 247 249 250 250 253 253 258 262 264 266 262 258 260 258 250 243 242 239 234 237 239 243 246 250 254 258 260 264 268 273 277 277 277 278
239 244 246 246 246 246 240 243 247 249 245 247 252 256 258 263 262 258 262 266 266 261 251 255 255 251 246 245 248 241 240 245 248 249 253 257 260 264 268 271 271 273 272 272
244 236 242 245 248 250 241 243 250 254 251 253 258 258 257 260 263 255 261 264 263 258 251 244 248 245 246 245 245 250 251 248 249 250 250 255 259 262 265 268 269 268 268 270
245 245 249 243 247 245 245 248 251 251 260 254 252 252 253 256 262 261 264 269 266 258 249 245 242 248 249 251 249 250 250 254 255 255 255 256 256 258 262 263 263 265 268 268
255 259 260 253 256 255 249 247 248 255 252 252 255 260 258 256 257 261 264 263 261 257 249 246 246 247 251 252 253 253 252 251 256 254 252 254 255 260 260 261 263 266 266 267
258 262 262 260 261 257 240 240 246 246 249 255 261 263 263 262 254 250 250 253 254 251 247 246 246 244 249 252 253 255 251 246 251 251 251 253 257 257 259 263 265 264 264 266
260 261 262 261 258 260 254 255 256 255 255 255 256 256 260 268 266 259 262 257 251 247 245 240 240 244 249 253 251 253 249 248 248 251 249 251 252 253 257 262 264 264 264 264
261 261 263 265 261 260 257 258 258 259 259 257 254 256 255 265 264 261 260 258 256 252 242 237 240 243 248 247 245 246 245 245 246 249 251 253 255 256 258 259 260 261 262 265
265 265 263 262 259 260 257 257 258 257 254 258 255 251 257 260 259 256 247 247 247 246 254 250 253 250 249 244 243 244 246 246 246 248 251 254 256 257 258 259 260 259 262 265
Height
5739 5746 5754 5762 5768 5770 5778 5784 5791 5797 5801 5801 5807 5815 5824 5825 5826 5833 5838 5841 5844 5846 5844 5848 5850 5852 5854 5854 5855 5856 5857 5858 5859 5860 5861 5862 5862 5862 5863 5862 5863 5862 5861 5860
5730 5740 5750 5750 5757 5764 5770 5775 5781 5785 5788 5791 5797 5803 5816 5817 5820 5826 5830 5834 5837 5840 5840 5842 5843 5846 5848 5848 5850 5851 5851 5853 5854 5855 5855 5856 5857 5858 5858 5857 5857 5856 5856 5856
5723 5731 5739 5743 5751 5755 5759 5764 5771 5776 5779 5783 5787 5793 5808 5813 5814 5819 5823 5828 5831 5834 5836 5837 5839 5840 5842 5845 5844 5845 5846 5847 5849 5850 5851 5852 5852 5852 5852 5851 5851 5850 5851 5850
5713 5721 5728 5736 5744 5746 5752 5757 5760 5765 5769 5775 5777 5779 5795 5804 5808 5813 5819 5823 5828 5829 5831 5832 5834 5835 5838 5839 5842 5842 5842 5842 5842 5844 5846 5846 5847 5847 5845 5846 5845 5845 5845 5845
5707 5714 5720 5729 5736 5736 5745 5744 5750 5753 5757 5762 5771 5770 5791 5797 5803 5809 5815 5817 5821 5823 5825 5827 5830 5832 5835 5835 5837 5837 5838 5838 5838 5838 5840 5841 5841 5840 5840 5841 5839 5839 5839 5839
5699 5706 5712 5720 5725 5727 5733 5737 5743 5746 5749 5753 5767 5765 5772 5792 5798 5803 5806 5809 5812 5815 5818 5820 5822 5825 5828 5829 5831 5832 5832 5831 5831 5832 5833 5834 5835 5835 5835 5834 5833 5833 5833 5833
5693 5699 5707 5712 5718 5723 5728 5733 5734 5737 5740 5751 5755 5757 5768 5784 5790 5795 5798 5801 5803 5807 5810 5813 5814 5817 5820 5822 5823 5825 5826 5827 5826 5827 5827 5828 5828 5828 5829 5827 5827 5827 5827 5826
5685 5693 5701 5707 5712 5718 5719 5722 5725 5727 5734 5744 5740 5749 5761 5770 5780 5786 5790 5793 5794 5797 5800 5804 5806 5808 5811 5812 5814 5817 5819 5819 5820 5820 5820 5821 5821 5822 5822 5822 5820 5820 5820 5818
5679 5686 5693 5700 5702 5706 5712 5713 5719 5722 5724 5728 5731 5746 5752 5758 5771 5775 5778 5782 5784 5785 5788 5793 5796 5798 5801 5803 5805 5808 5810 5811 5813 5815 5814 5814 5814 5814 5814 5813 5813 5813 5812 5810
5668 5676 5681 5685 5691 5698 5703 5707 5710 5712 5713 5716 5724 5732 5744 5753 5760 5765 5768 5771 5773 5775 5778 5781 5786 5788 5791 5794 5796 5798 5801 5803 5804 5805 5807 5807 5806 5806 5805 5805 5805 5804 5803 5801
5658 5665 5670 5674 5681 5691 5691 5694 5701 5704 5706 5709 5715 5724 5738 5742 5750 5755 5759 5761 5764 5765 5767 5770 5774 5779 5782 5785 5786 5788 5790 5793 5794 5795 5795 5796 5796 5797 5797 5797 5797 5795 5794 5793
5651 5650 5655 5664 5671 5675 5678 5684 5688 5692 5703 5702 5705 5711 5728 5734 5739 5744 5747 5749 5752 5755 5757 5759 5762 5767 5770 5773 5776 5777 5779 5782 5784 5785 5786 5786 5785 5786 5786 5786 5785 5784 5782 5781
5639 5638 5645 5652 5659 5664 5669 5679 5682 5686 5683 5689 5691 5706 5719 5723 5726 5730 5735 5739 5742 5744 5746 5749 5751 5752 5755 5758 5762 5765 5767 5769 5771 5773 5774 5775 5774 5774 5774 5773 5772 5771 5770 5769
5623 5628 5634 5646 5655 5653 5658 5665 5671 5672 5672 5685 5683 5702 5711 5712 5714 5717 5720 5724 5728 5733 5736 5738 5738 5740 5742 5745 5747 5751 5754 5756 5759 5761 5762 5762 5763 5763 5763 5763 5761 5760 5759 5757
5612 5619 5626 5636 5638 5640 5647 5652 5658 5661 5671 5666 5689 5685 5700 5704 5704 5707 5708 5712 5717 5722 5724 5725 5725 5726 5729 5732 5734 5738 5741 5744 5746 5747 5749 5750 5751 5751 5750 5749 5748 5747 5746 5743
5603 5610 5616 5622 5626 5630 5633 5638 5644 5653 5658 5658 5673 5676 5695 5695 5694 5696 5697 5700 5704 5708 5708 5708 5710 5712 5714 5717 5720 5724 5727 5730 5732 5733 5735 5736 5737 5737 5735 5735 5734 5734 5733 5731
5593 5599 5604 5610 5613 5612 5613 5633 5636 5641 5647 5656 5657 5677 5683 5682 5680 5681 5685 5690 5694 5696 5694 5695 5694 5697 5700 5703 5707 5709 5711 5713 5716 5718 5720 5720 5721 5721 5721 5721 5720 5720 5720 5719
5586 5590 5592 5597 5597 5594 5615 5621 5630 5633 5639 5642 5644 5660 5669 5673 5662 5664 5677 5682 5681 5680 5683 5684 5689 5691 5690 5690 5691 5693 5695 5697 5700 5702 5705 5706 5706 5707 5707 5708 5708 5708 5708 5706
5580 5582 5582 5583 5586 5588 5602 5621 5621 5617 5625 5630 5636 5650 5655 5650 5643 5655 5670 5660 5666 5667 5670 5670 5672 5675 5677 5679 5680 5680 5681 5684 5686 5687 5689 5691 5692 5693 5694 5694 5694 5694 5693 5693
5570 5573 5572 5575 5573 5574 5604 5612 5607 5599 5599 5632 5624 5631 5635 5630 5623 5647 5650 5644 5646 5650 5653 5657 5659 5656 5658 5663 5664 5666 5669 5670 5671 5672 5673 5675 5676 5678 5678 5679 5679 5679 5679 5678
5559 5559 5559 5564 5558 5563 5591 5598 5590 5580 5607 5614 5605 5608 5614 5609 5615 5624 5626 5628 5629 5630 5637 5641 5640 5641 5645 5645 5649 5651 5652 5655 5655 5657 5659 5660 5661 5662 5663 5664 5665 5665 5665 5664
5547 5545 5546 5550 5546 5547 5590 5576 5572 5579 5580 5586 5591 5589 5592 5595 5598 5604 5610 5606 5612 5613 5615 5619 5621 5626 5628 5628 5631 5633 5636 5638 5640 5643 5644 5646 5647 5649 5650 5650 5651 5651 5652 5651
5529 5537 5539 5535 5535 5548 5569 5560 5557 5559 5562 5569 5572 5573 5575 5575 5581 5583 5586 5586 5591 5592 5593 5599 5603 5607 5609 5612 5615 5618 5621 5621 5624 5627 5630 5632 5634 5635 5636 5637 5638 5638 5638 5638
5517 5522 5515 5519 5525 5535 5542 5544 5537 5540 5545 5554 5557 5559 5560 5561 5564 5564 5563 5567 5570 5574 5576 5578 5582 5589 5593 5596 5601 5604 5605 5607 5609 5612 5614 5617 5618 5619 5620 5622 5624 5623 5623 5625
5506 5506 5506 5502 5510 5515 5520 5520 5524 5528 5532 5535 5538 5542 5544 5543 5547 5547 5546 5549 5552 5559 5560 5560 5563 5570 5576 5578 5582 5587 5589 5592 5594 5596 5600 5602 5604 5605 5605 5606 5608 5609 5611 5612
5490 5490 5489 5490 5495 5496 5503 5506 5504 5508 5514 5517 5520 5526 5530 5527 5527 5529 5528 5531 5536 5544 5547 5547 5551 5553 5556 5560 5565 5569 5573 5575 5577 5580 5584 5586 5588 5589 5590 5591 5593 5596 5596 5596